Location: Payette
(44.0782°N, 116.9338°W)
Time: 23:42:59
(UTC-06:00)

ISS - Visible Passes

Search period start: 19 October 2019 00:00
Search period end: 29 October 2019 00:00
Orbit: 411 x 421 km, 51.6° (Epoch: 20 October)

Date Brightness Start Highest point End Pass type
(mag) Time Alt. Az. Time Alt. Az. Time Alt. Az.
23 Oct -1.0 07:19:43 10° S 07:22:14 20° SE 07:24:46 10° E visible
24 Oct -0.7 06:32:29 10° SSE 06:33:49 12° SE 06:35:10 10° ESE visible
25 Oct -2.9 07:18:13 10° SW 07:21:29 50° SE 07:24:46 10° ENE visible
26 Oct -2.0 06:31:20 20° S 06:32:57 30° SE 06:35:57 10° ENE visible
27 Oct -1.0 05:45:17 17° ESE 05:45:17 17° ESE 05:46:52 10° E visible
27 Oct -3.8 07:18:12 15° WSW 07:20:53 67° NNW 07:24:15 10° NE visible
28 Oct -3.8 06:31:59 71° SSW 06:32:14 78° SSE 06:35:36 10° ENE visible
